Location: Buckenweiler
(49.0667°N, 10.2500°E)
Time: 20:02:00
(UTC+00:00)

Timation 1 Rocket - Pass Details

Date: 18 January 2026
Orbit: 895 x 908 km, 70.0° (Epoch: 15 February)

Event Time Altitude Azimuth Distance (km) Brightness Sun altitude
Exits shadow 04:19:03 70° 307° (NW) 962 4.2 -26.8°
Maximum altitude 04:19:43 81° 243° (WSW) 923 4.2 -26.7°
Drops below altitude 10° 04:25:42 10° 156° (SSE) 2,585 7.0 -25.7°
Sets 04:28:11 0° 156° (SSE) 3,523 7.8 -25.3°
